Location: Fremont
(37.5480°N, 121.9880°W)
Time: 14:54:42
(UTC-07:00)

Daily predictions for brighter satellites

Satellite Brightness Start Highest point End
(mag) Time Altitude Azimuth Time Altitude Azimuth Time Altitude Azimuth
CZ-2D R/B 3.8 20:40:57 10° S 20:44:47 61° W 20:48:39 10° NNW
YAOGAN 6 2.6 20:41:28 10° SSE 20:45:09 69° ENE 20:48:49 10° N
Cosmos 1242 Rocket 3.9 20:42:42 10° NNE 20:45:38 22° ENE 20:48:31 10° SE
Cosmos 1864 Rocket 4.5 20:39:52 10° S 20:46:00 77° E 20:52:08 10° N
Cosmos 2322 Rocket 3.0 20:43:09 10° N 20:48:16 35° ENE 20:53:21 10° SE
GPS 2-05 Rocket1 4.2 20:54:05 10° SSW 20:56:29 19° SSE 20:58:55 10° ESE
Cosmos 1340 Rocket 4.5 20:54:37 10° SE 20:57:16 17° E 20:59:56 10° NE
SL-16 R/B 2.7 20:53:09 10° N 20:58:35 45° ENE 21:03:59 10° SE
Thor Agena Rocket 3.7 20:56:01 10° NNE 21:01:18 85° WNW 21:06:29 10° SSW
OAO 1 Rocket 4.5 20:58:39 10° W 21:03:56 68° S 21:09:15 10° E
EPKM 4.1 20:58:32 10° WSW 21:04:22 20° SSW 21:07:01 10° SSE
SJ-11-01 4.3 21:00:45 10° SSE 21:05:26 72° ENE 21:10:10 10° N
Resurs 1-3 3.6 21:06:14 10° SSE 21:10:36 87° WSW 21:15:01 10° NNW
Spot 2 Rocket 3.5 21:06:07 10° SSE 21:11:05 66° ENE 21:16:06 10° N
Cosmos 468 Rocket 4.2 21:08:10 10° SSW 21:13:27 79° WNW 21:18:42 10° NNE
ATLAS CENTAUR R/B 4.0 21:08:45 10° SW 21:14:23 89° NW 21:31:53 10° NE
Timation 2 Rocket 4.1 21:10:28 10° SSW 21:16:25 77° WNW 21:22:30 10° NNE
Cosmos 1937 Rocket 3.8 21:12:27 10° N 21:17:28 52° ENE 21:21:45 14° SE
Cosmos 1763 Rocket 3.5 21:12:25 10° S 21:17:41 70° ESE 21:22:57 10° NNE
Cosmos 1455 Rocket 4.1 21:15:00 10° NNE 21:18:47 28° ENE 21:21:29 16° SE
USA 186 3.6 21:17:57 10° SSW 21:20:52 31° W 21:23:56 10° NNW
Cosmos 2298 Rocket 4.5 21:18:28 10° N 21:23:35 47° ENE 21:27:31 16° SE
ERS-2 2.9 21:20:09 10° S 21:23:44 51° W 21:27:20 10° NNW
Cosmos 841 Rocket 3.6 21:19:15 10° S 21:24:20 54° ESE 21:29:28 10° NNE
ISS -0.5 21:26:25 10° NW 21:27:49 12° NNW 21:29:12 10° N
Cosmos 1975 Rocket 3.0 21:23:39 10° S 21:27:58 86° W 21:32:19 10° N
Tiangong 2 2.8 21:25:39 10° WNW 21:28:31 31° N 21:31:24 10° ENE
Cosmos 1666 2.9 21:25:50 10° NNW 21:29:42 72° W 21:33:32 10° S
Shenzhou-11 Module 2.9 21:27:44 10° WNW 21:30:34 42° NNE 21:32:39 16° E
Cosmos 1975 3.4 21:27:08 10° NNW 21:31:06 58° W 21:35:00 10° S
Okean 1 Rocket 4.3 21:28:09 10° NNW 21:32:13 40° W 21:36:15 10° SSW
USA 32 4.3 21:31:17 10° N 21:36:22 49° E 21:39:57 19° SSE
Cosmos 2360 Rocket 2.9 21:32:04 10° N 21:37:20 38° ENE 21:40:45 20° ESE
Cosmos 1980 Rocket 4.2 21:35:14 10° NW 21:39:43 24° WSW 21:44:11 10° SSW
Cosmos 2219 Rocket 4.3 21:37:47 10° NNE 21:40:01 12° NE 21:42:15 10° ENE
Atlas Centaur 2 2.9 21:37:49 10° WSW 21:40:24 17° SSW 21:41:23 15° S
Meteor 2-20 4.5 21:36:45 10° N 21:42:53 70° E 21:47:48 17° SSE
Cosmos 1743 3.6 21:41:40 10° NNW 21:45:21 48° W 21:48:58 10° SSW
Cosmos 292 Rocket 3.7 21:40:49 10° SSW 21:45:34 83° ESE 21:50:21 10° NNE
Cosmos 1544 Rocket 3.7 21:41:59 10° N 21:46:23 59° E 21:48:54 24° SSE
Iridium 2 3.9 21:43:24 10° S 21:47:12 70° W 21:51:02 10° N
USA 234 3.4 21:41:34 10° NE 21:48:09 82° NW 21:54:43 10° SW
MetOp-A 4.2 21:46:15 20° SSE 21:49:56 69° ENE 21:55:15 10° N
ATLAS CENTAUR R/B 4.4 21:48:53 10° W 21:50:16 11° WSW 21:51:39 10° SW
ERS-1 Rocket 3.5 21:47:42 24° SE 21:50:19 43° ENE 21:55:03 10° N
Cosmos 1356 3.4 21:49:20 26° S 21:51:03 62° E 21:54:30 10° NNE
Meteor 2-9 Rocket 4.1 21:47:00 10° N 21:52:23 85° E 21:56:20 19° S
Helios 1B rocket 3.9 21:52:49 10° NE 21:55:37 20° E 21:55:37 20° E
SJ 16-02 2.4 21:52:04 10° N 21:56:02 31° ENE 21:57:27 25° ESE
Cosmos 1536 Rocket 3.5 21:58:59 26° SSE 22:01:23 64° E 22:05:48 10° NNE
Resurs 01 Rocket 3.8 22:01:58 10° SW 22:05:22 22° W 22:08:47 10° NW
Aureole 2 Rocket 1.8 22:04:00 10° NNW 22:06:52 73° WSW 22:07:03 68° SSW
Cosmos 2333 Rocket 4.0 22:03:14 10° N 22:07:08 18° NE 22:09:41 14° E
Meteor 1-23 Rocket 4.1 22:04:04 18° S 22:08:17 76° E 22:13:50 10° NNE
SPOT 1/Viking Rocket 4.2 22:06:58 29° ESE 22:08:51 39° ENE 22:13:37 10° N
COSMOS 2428 3.9 22:05:29 10° N 22:10:25 30° ENE 22:12:38 23° E
SL-08 RB Rocket 3.6 22:08:52 32° SSE 22:10:58 88° ENE 22:15:33 10° NNW
H-2A R/B 1.9 22:09:40 29° SSE 22:12:12 89° ENE 22:17:16 10° NNW
CENTAUR R/B 3.1 22:06:28 10° SW 22:12:17 58° NW 22:18:58 10° NNE
Cosmos 1515 3.7 22:10:34 30° S 22:12:20 83° W 22:16:12 10° N
Lacrosse 5 rocket 1.9 22:08:21 10° NNW 22:12:31 47° NE 22:13:45 35° E
CZ-4C R/B 3.8 22:09:44 10° NNW 22:16:25 39° NE 22:20:58 22° ESE
Cosmos 1125 Rocket 4.0 22:11:43 10° N 22:16:44 44° ENE 22:18:20 34° ESE
Meteor 2-4 Rocket 4.5 22:12:20 10° SSW 22:17:35 50° WNW 22:23:00 10° N
ARGOS 3.6 22:19:27 22° S 22:22:49 58° W 22:28:10 10° NNW
Cosmos 2297 Rocket 4.3 22:26:10 11° ENE 22:26:10 11° ENE 22:26:46 10° ENE
Cosmos 2227 Rocket 4.1 22:29:30 14° E 22:29:30 14° E 22:31:15 10° ENE
Cosmos 836 Rocket 4.4 22:25:43 20° SSW 22:29:19 87° WNW 22:34:34 10° NNE
Nadezhda 4 Rocket 4.0 22:23:57 10° N 22:30:14 66° E 22:32:40 38° SSE
Cosmos 2322 Rocket 3.7 22:27:22 10° NW 22:32:09 29° WSW 22:35:42 15° SSW
BREEZE-M DEB (TANK) 4.4 22:30:22 10° W 22:32:58 26° SSW 22:33:06 26° SSW
Cosmos 2322 3.6 22:27:13 10° NNW 22:32:58 81° ENE 22:34:53 44° SSE
CARTOSAT-1 4.3 22:33:20 36° E 22:33:34 36° ENE 22:37:32 10° N
DMSP B5D2-2 4.0 22:30:04 10° NNE 22:35:23 87° WNW 22:38:01 31° SSW
Cosmos 2237 Rocket 4.1 22:32:33 10° NNE 22:36:16 17° NE 22:38:17 15° ENE
Landsat 7 3.9 22:36:45 51° ESE 22:37:33 59° ENE 22:42:14 10° N
Cosmos 1025 Rocket 2.9 22:41:10 69° SSE 22:41:39 81° E 22:46:02 10° N
Cosmos 1066 Rocket 4.1 22:40:28 50° SSE 22:41:40 64° E 22:47:03 10° NNE
SL-16 R/B 4.1 22:38:01 10° NW 22:42:19 23° W 22:45:58 12° SW
Cosmos 1544 4.2 22:47:20 10° N 22:49:58 35° NE 22:49:58 35° NE
USA 245 4.3 22:53:28 35° WSW 22:53:51 36° W 22:57:46 10° NNW
Cosmos 1606 Rocket 4.4 22:49:41 10° N 22:53:25 37° ENE 22:53:25 37° ENE
Terra 1.9 22:56:06 59° E 22:56:20 60° ENE 23:01:01 10° N
SPOT 5 2.8 22:56:22 58° SW 22:56:53 63° W 23:01:25 10° NNW
Cosmos 2026 Rocket 4.4 22:51:06 10° N 22:56:56 44° ENE 22:57:49 41° E
Cosmos 2219 3.1 22:58:22 51° S 22:59:54 81° ESE 23:05:41 10° NNE
Spot 1 4.0 23:00:52 71° NNE 23:00:52 71° NNE 23:04:36 10° N
SL-19 R/B 4.5 23:01:37 53° SSE 23:03:13 87° ENE 23:09:47 10° NNW
Helios 1A 3.7 23:04:44 43° WSW 23:04:56 43° W 23:08:56 10° NNW
Tiangong 2 3.2 23:02:42 10° WNW 23:04:39 28° NNW 23:04:39 28° NNW
Meteor 1-22 Rocket 4.2 23:02:46 10° N 23:08:00 54° ENE 23:08:09 54° E
YAOGAN 11 4.3 23:10:27 62° NE 23:10:27 62° NE 23:14:36 10° N
Cosmos 2142 Rocket 4.4 23:10:31 60° SE 23:11:27 69° E 23:17:37 10° NNE
CZ-3 Stage 3 4.2 23:12:50 47° SSE 23:13:07 47° SSE 23:35:40 10° E
DELTA 2 R/B (1) 3.9 23:11:09 10° WSW 23:15:16 50° SW 23:15:16 50° SW
CZ-2C R/B 2.8 23:13:44 10° NNE 23:19:09 59° E 23:19:09 59° E
Cosmos 2360 Rocket 3.6 23:16:27 10° NW 23:21:05 27° WSW 23:22:32 24° SW
Cosmos 2219 Rocket 2.0 23:19:11 10° NNW 23:24:49 85° ENE 23:25:04 81° SE
Cosmos 2195 Rocket 4.3 23:18:45 10° N 23:24:56 88° E 23:25:47 69° S
Cosmos 1627 Rocket 4.3 23:19:37 10° N 23:25:47 85° E 23:26:32 71° SSE
Cosmos 2333 4.4 23:21:02 10° NNW 23:26:36 59° WSW 23:27:06 57° SW
Cosmos 1428 Rocket 4.5 23:21:32 10° N 23:27:35 60° E 23:27:59 59° E
Cosmos 1892 Rocket 4.2 23:28:48 52° NNE 23:28:48 52° NNE 23:32:07 10° N
Cosmos 1634 Rocket 4.1 23:27:33 51° SSW 23:29:09 71° W 23:35:30 10° N
Helios 1B rocket 4.1 23:27:38 10° NNW 23:31:11 28° WNW 23:31:58 26° W
SJ 16-02 3.3 23:31:08 10° NW 23:34:22 20° W 23:34:28 20° W
COSMOS 2455 2.9 23:37:08 64° E 23:37:08 64° E 23:42:40 10° NNE
CZ-2C R/B 3.1 23:38:16 72° WSW 23:38:22 73° WSW 23:43:59 10° NNW
Cosmos 2228 3.9 23:36:19 10° N 23:39:27 47° N 23:39:27 47° N
Cosmos 1538 Rocket 4.1 23:44:58 73° N 23:44:58 73° N 23:49:43 10° NNE
ADEOS Rocket 4.4 23:41:22 10° NE 23:44:05 20° ENE 23:44:05 20° ENE
Cosmos 1726 Rocket 4.5 23:44:42 10° NNW 23:48:06 47° NW 23:48:06 47° NW
Lacrosse 5 rocket 3.9 23:48:33 10° WNW 23:49:25 13° W 23:49:25 13° W
Cosmos 2333 Rocket 2.3 23:46:13 10° NNW 23:51:41 64° W 23:51:41 64° W
SL-16 R/B 3.5 23:49:13 10° N 23:54:07 29° ENE 23:54:38 28° ENE
COSMOS 2428 3.7 23:49:32 10° NW 23:54:38 36° WSW 23:54:38 36° WSW
